TimePDT,TemperatureF,Dew PointF,Humidity,Sea Level PressureIn,VisibilityMPH,Wind Direction,Wind SpeedMPH,Gust SpeedMPH,PrecipitationIn,Events,Conditions,WindDirDegrees,DateUTC
12:54 AM,35.1,32.0,89,30.51,10.0,SW,5.8,-,N/A,,Clear,230,2013-03-10 08:54:00
1:54 AM,32.0,30.0,92,30.52,10.0,SW,4.6,-,N/A,,Clear,220,2013-03-10 09:54:00
3:54 AM,33.1,30.9,92,30.50,10.0,South,5.8,-,N/A,,Clear,190,2013-03-10 10:54:00
5:50 AM,32.0,30.2,93,30.50,10.0,South,5.8,-,N/A,,Partly Cloudy,190,2013-03-10 12:50:00
5:54 AM,33.1,30.9,92,30.51,10.0,South,5.8,-,N/A,,Partly Cloudy,190,2013-03-10 12:54:00
6:54 AM,32.0,30.0,92,30.51,10.0,SW,5.8,-,N/A,,Scattered Clouds,220,2013-03-10 13:54:00
7:54 AM,33.1,30.9,92,30.51,10.0,SSW,5.8,-,N/A,,Scattered Clouds,200,2013-03-10 14:54:00
8:54 AM,36.0,34.0,93,30.52,10.0,South,4.6,-,N/A,,Overcast,180,2013-03-10 15:54:00
9:54 AM,43.0,37.0,80,30.51,10.0,South,6.9,-,N/A,,Mostly Cloudy,190,2013-03-10 16:54:00
10:54 AM,48.0,39.0,71,30.50,10.0,Variable,3.5,-,N/A,,Overcast,0,2013-03-10 17:54:00
11:54 AM,51.1,39.9,66,30.49,10.0,WSW,5.8,-,N/A,,Overcast,240,2013-03-10 18:54:00
12:54 PM,55.0,37.9,53,30.47,10.0,Calm,Calm,-,N/A,,Overcast,0,2013-03-10 19:54:00
1:54 PM,59.0,37.0,44,30.45,10.0,Calm,Calm,-,N/A,,Overcast,0,2013-03-10 20:54:00
2:54 PM,60.1,37.0,42,30.43,10.0,Calm,Calm,-,N/A,,Overcast,0,2013-03-10 21:54:00
3:54 PM,61.0,42.1,50,30.42,10.0,South,5.8,-,N/A,,Overcast,190,2013-03-10 22:54:00
4:54 PM,61.0,45.0,56,30.42,10.0,West,8.1,-,N/A,,Overcast,270,2013-03-10 23:54:00
5:54 PM,59.0,44.1,58,30.42,10.0,NNE,3.5,-,N/A,,Overcast,30,2013-03-11 00:54:00
6:54 PM,57.0,42.1,57,30.41,10.0,Calm,Calm,-,N/A,,Overcast,0,2013-03-11 01:54:00
7:54 PM,55.0,44.1,67,30.43,10.0,West,3.5,-,N/A,,Overcast,280,2013-03-11 02:54:00
8:03 PM,55.4,44.6,67,30.42,10.0,West,3.5,-,N/A,,Overcast,280,2013-03-11 03:03:00
8:39 PM,53.6,44.6,72,30.41,10.0,Calm,Calm,-,N/A,,Overcast,0,2013-03-11 03:39:00
8:54 PM,53.1,45.0,74,30.42,10.0,Calm,Calm,-,N/A,,Overcast,0,2013-03-11 03:54:00
9:54 PM,52.0,48.0,86,30.43,10.0,North,5.8,-,N/A,,Overcast,350,2013-03-11 04:54:00
10:41 PM,51.8,48.2,88,30.43,10.0,North,4.6,-,N/A,,Overcast,10,2013-03-11 05:41:00
10:54 PM,51.1,48.0,89,30.43,10.0,Calm,Calm,-,N/A,,Overcast,0,2013-03-11 05:54:00
11:18 PM,48.2,46.4,93,30.42,10.0,Calm,Calm,-,N/A,,Overcast,0,2013-03-11 06:18:00
11:37 PM,48.2,46.4,93,30.42,10.0,WNW,3.5,-,N/A,,Overcast,300,2013-03-11 06:37:00
11:54 PM,50.0,46.9,89,30.43,10.0,Calm,Calm,-,N/A,,Overcast,0,2013-03-11 06:54:00
12:54 AM,50.0,46.9,89,30.43,10.0,North,3.5,-,N/A,,Overcast,350,2013-03-11 07:54:00